Time,TemperatureF,DewpointF,PressureIn,WindDirection,WindDirectionDegrees,WindSpeedMPH,WindSpeedGustMPH,Humidity,HourlyPrecipIn,Conditions,Clouds,dailyrainin,SoftwareType,DateUTC
2013-04-30 00:02:00,62.1,18.0,29.58,North,351,3.0,4.0,18,0.00,,,0.00,weatherlink.com 1.10,2013-04-30 06:02:00,
2013-04-30 00:07:00,61.5,16.2,29.58,North,350,0.0,3.0,17,0.00,,,0.00,Wunderground v.1.15,2013-04-30 06:07:00,
2013-04-30 00:12:00,61.0,16.0,29.59,North,355,0.0,2.0,17,0.00,,,0.00,weatherlink.com 1.10,2013-04-30 06:12:00,
2013-04-30 00:18:00,60.5,18.0,29.59,North,355,0.0,1.0,19,0.00,,,0.00,Wunderground v.1.15,2013-04-30 06:18:00,
2013-04-30 00:23:00,60.2,16.5,29.59,North,355,0.0,1.0,18,0.00,,,0.00,Wunderground v.1.15,2013-04-30 06:23:00,
2013-04-30 00:29:00,60.0,17.6,29.59,North,351,2.0,2.0,19,0.00,,,0.00,Wunderground v.1.15,2013-04-30 06:29:00,
2013-04-30 00:35:00,60.0,17.6,29.59,North,355,0.0,2.0,19,0.00,,,0.00,Wunderground v.1.15,2013-04-30 06:35:00,
2013-04-30 00:41:00,60.0,17.6,29.59,North,351,1.0,2.0,19,0.00,,,0.00,Wunderground v.1.15,2013-04-30 06:41:00,
2013-04-30 00:46:00,59.6,18.4,29.59,North,355,0.0,3.0,20,0.00,,,0.00,Wunderground v.1.15,2013-04-30 06:46:00,
2013-04-30 00:52:00,59.1,19.1,29.59,North,351,1.0,1.0,21,0.00,,,0.00,Wunderground v.1.15,2013-04-30 06:52:00,
2013-04-30 00:57:00,58.7,18.8,29.59,North,355,1.0,2.0,21,0.00,,,0.00,Wunderground v.1.15,2013-04-30 06:57:00,
2013-04-30 01:03:00,58.0,18.2,29.59,North,351,1.0,3.0,21,0.00,,,0.00,Wunderground v.1.15,2013-04-30 07:03:00,
2013-04-30 01:08:00,57.5,18.9,29.59,North,351,0.0,3.0,22,0.00,,,0.00,Wunderground v.1.15,2013-04-30 07:08:00,
2013-04-30 01:14:00,57.1,18.0,29.59,North,355,2.0,2.0,22,0.00,,,0.00,weatherlink.com 1.10,2013-04-30 07:14:00,
2013-04-30 01:19:00,56.7,20.3,29.59,North,355,0.0,2.0,24,0.00,,,0.00,Wunderground v.1.15,2013-04-30 07:19:00,
2013-04-30 01:26:00,56.3,19.9,29.59,North,351,1.0,1.0,24,0.00,,,0.00,Wunderground v.1.15,2013-04-30 07:26:00,
2013-04-30 01:31:00,56.0,20.6,29.59,North,355,1.0,1.0,25,0.00,,,0.00,Wunderground v.1.15,2013-04-30 07:31:00,
2013-04-30 01:36:00,55.7,20.4,29.59,North,355,0.0,1.0,25,0.00,,,0.00,Wunderground v.1.15,2013-04-30 07:36:00,
2013-04-30 01:42:00,55.5,21.1,29.59,North,355,1.0,1.0,26,0.00,,,0.00,Wunderground v.1.15,2013-04-30 07:42:00,
2013-04-30 01:47:00,55.2,20.9,29.59,North,355,0.0,1.0,26,0.00,,,0.00,Wunderground v.1.15,2013-04-30 07:47:00,
2013-04-30 01:53:00,54.8,20.5,29.59,North,350,2.0,2.0,26,0.00,,,0.00,Wunderground v.1.15,2013-04-30 07:53:00,
2013-04-30 01:58:00,54.7,20.0,29.58,North,355,2.0,3.0,26,0.00,,,0.00,weatherlink.com 1.10,2013-04-30 07:58:00,
2013-04-30 02:03:00,54.6,20.4,29.59,North,351,1.0,2.0,26,0.00,,,0.00,Wunderground v.1.15,2013-04-30 08:03:00,
2013-04-30 02:08:00,54.6,20.4,29.59,North,355,0.0,2.0,26,0.00,,,0.00,Wunderground v.1.15,2013-04-30 08:08:00,
2013-04-30 02:13:00,54.6,20.4,29.59,North,355,1.0,2.0,26,0.00,,,0.00,Wunderground v.1.15,2013-04-30 08:13:00,
2013-04-30 02:18:00,54.4,20.2,29.59,North,355,3.0,3.0,26,0.00,,,0.00,Wunderground v.1.15,2013-04-30 08:18:00,
2013-04-30 02:23:00,54.3,20.1,29.59,North,351,0.0,2.0,26,0.00,,,0.00,Wunderground v.1.15,2013-04-30 08:23:00,
2013-04-30 02:28:00,54.1,19.9,29.60,North,355,2.0,2.0,26,0.00,,,0.00,Wunderground v.1.15,2013-04-30 08:28:00,
2013-04-30 02:33:00,54.1,19.9,29.60,WSW,241,2.0,8.0,26,0.00,,,0.00,Wunderground v.1.15,2013-04-30 08:33:00,
2013-04-30 02:38:00,54.8,19.6,29.61,SW,232,3.0,8.0,25,0.00,,,0.00,Wunderground v.1.15,2013-04-30 08:38:00,
2013-04-30 02:43:00,55.3,21.0,29.60,SW,232,3.0,4.0,26,0.00,,,0.00,Wunderground v.1.15,2013-04-30 08:43:00,
2013-04-30 02:48:00,55.2,20.9,29.60,NE,38,3.0,5.0,26,0.00,,,0.00,Wunderground v.1.15,2013-04-30 08:48:00,
2013-04-30 02:53:00,54.7,20.4,29.60,NE,39,0.0,3.0,26,0.00,,,0.00,Wunderground v.1.15,2013-04-30 08:53:00,
2013-04-30 02:58:00,54.5,21.2,29.60,NE,39,2.0,3.0,27,0.00,,,0.00,Wunderground v.1.15,2013-04-30 08:58:00,
2013-04-30 03:03:00,54.2,20.0,29.60,NE,38,0.0,2.0,26,0.00,,,0.00,Wunderground v.1.15,2013-04-30 09:03:00,
2013-04-30 03:08:00,53.8,20.6,29.60,NE,38,2.0,3.0,27,0.00,,,0.00,Wunderground v.1.15,2013-04-30 09:08:00,
2013-04-30 03:13:00,53.5,21.2,29.60,NE,38,2.0,3.0,28,0.00,,,0.00,Wunderground v.1.15,2013-04-30 09:13:00,
2013-04-30 03:18:00,53.3,21.0,29.61,NE,39,0.0,3.0,28,0.00,,,0.00,Wunderground v.1.15,2013-04-30 09:18:00,
2013-04-30 03:23:00,52.9,20.6,29.60,NE,38,1.0,2.0,28,0.00,,,0.00,Wunderground v.1.15,2013-04-30 09:23:00,
2013-04-30 03:28:00,52.6,22.0,29.60,NE,39,1.0,2.0,30,0.00,,,0.00,Wunderground v.1.15,2013-04-30 09:28:00,
2013-04-30 03:33:00,52.4,21.8,29.61,ESE,120,0.0,1.0,30,0.00,,,0.00,Wunderground v.1.15,2013-04-30 09:33:00,
2013-04-30 03:38:00,52.1,22.3,29.60,ESE,111,3.0,4.0,31,0.00,,,0.00,Wunderground v.1.15,2013-04-30 09:38:00,
2013-04-30 03:43:00,51.9,22.2,29.60,ESE,112,4.0,4.0,31,0.00,,,0.00,Wunderground v.1.15,2013-04-30 09:43:00,
2013-04-30 03:48:00,51.7,21.2,29.60,ESE,113,0.0,5.0,30,0.00,,,0.00,Wunderground v.1.15,2013-04-30 09:48:00,
2013-04-30 03:53:00,51.7,22.0,29.60,ESE,109,0.0,4.0,31,0.00,,,0.00,Wunderground v.1.15,2013-04-30 09:53:00,
2013-04-30 03:58:00,51.8,20.5,29.60,ESE,109,0.0,4.0,29,0.00,,,0.00,Wunderground v.1.15,2013-04-30 09:58:00,
2013-04-30 04:03:00,51.7,21.2,29.61,ESE,109,4.0,4.0,30,0.00,,,0.00,Wunderground v.1.15,2013-04-30 10:03:00,
2013-04-30 04:08:00,51.5,22.6,29.61,NNE,27,4.0,5.0,32,0.00,,,0.00,Wunderground v.1.15,2013-04-30 10:08:00,
2013-04-30 04:13:00,51.1,22.2,29.60,NNE,26,3.0,3.0,32,0.00,,,0.00,Wunderground v.1.15,2013-04-30 10:13:00,
2013-04-30 04:18:00,50.9,22.1,29.60,NNE,26,0.0,4.0,32,0.00,,,0.00,Wunderground v.1.15,2013-04-30 10:18:00,
2013-04-30 04:23:00,50.6,21.8,29.60,NNE,26,2.0,3.0,32,0.00,,,0.00,Wunderground v.1.15,2013-04-30 10:23:00,
2013-04-30 04:28:00,50.4,22.3,29.60,NNE,27,2.0,3.0,33,0.00,,,0.00,Wunderground v.1.15,2013-04-30 10:28:00,
2013-04-30 04:33:00,50.2,22.2,29.60,NNE,27,0.0,3.0,33,0.00,,,0.00,Wunderground v.1.15,2013-04-30 10:33:00,
2013-04-30 04:38:00,50.0,22.0,29.60,NNE,26,2.0,3.0,33,0.00,,,0.00,Wunderground v.1.15,2013-04-30 10:38:00,
2013-04-30 04:43:00,49.9,23.3,29.60,NNE,28,2.0,3.0,35,0.00,,,0.00,Wunderground v.1.15,2013-04-30 10:43:00,
2013-04-30 04:48:00,49.9,22.6,29.61,NNE,27,0.0,3.0,34,0.00,,,0.00,Wunderground v.1.15,2013-04-30 10:48:00,
2013-04-30 04:53:00,49.7,23.1,29.61,NNE,26,0.0,3.0,35,0.00,,,0.00,Wunderground v.1.15,2013-04-30 10:53:00,
2013-04-30 04:58:00,49.4,23.5,29.61,NNE,27,1.0,3.0,36,0.00,,,0.00,Wunderground v.1.15,2013-04-30 10:58:00,
2013-04-30 05:03:00,49.2,24.6,29.61,NNE,26,0.0,1.0,38,0.00,,,0.00,Wunderground v.1.15,2013-04-30 11:03:00,
2013-04-30 05:08:00,49.0,23.8,29.61,NNE,28,0.0,1.0,37,0.00,,,0.00,Wunderground v.1.15,2013-04-30 11:08:00,
2013-04-30 05:13:00,48.9,25.0,29.61,NNE,27,0.0,1.0,39,0.00,,,0.00,Wunderground v.1.15,2013-04-30 11:13:00,
2013-04-30 05:18:00,48.7,24.8,29.61,NNE,26,2.0,2.0,39,0.00,,,0.00,Wunderground v.1.15,2013-04-30 11:18:00,
2013-04-30 05:23:00,48.5,25.2,29.61,NNE,27,0.0,1.0,40,0.00,,,0.00,Wunderground v.1.15,2013-04-30 11:23:00,
2013-04-30 05:28:00,48.2,24.4,29.61,NNE,26,3.0,3.0,39,0.00,,,0.00,Wunderground v.1.15,2013-04-30 11:28:00,
2013-04-30 05:33:00,48.3,25.1,29.61,NNE,27,2.0,3.0,40,0.00,,,0.00,Wunderground v.1.15,2013-04-30 11:33:00,
2013-04-30 05:38:00,48.3,23.8,29.61,NNE,27,3.0,4.0,38,0.00,,,0.00,Wunderground v.1.15,2013-04-30 11:38:00,
2013-04-30 05:43:00,48.3,24.5,29.61,NNE,26,1.0,3.0,39,0.00,,,0.00,Wunderground v.1.15,2013-04-30 11:43:00,
2013-04-30 05:48:00,48.2,23.7,29.62,NNE,26,2.0,3.0,38,0.00,,,0.00,Wunderground v.1.15,2013-04-30 11:48:00,
2013-04-30 05:53:00,48.1,23.7,29.62,NNE,26,0.0,3.0,38,0.00,,,0.00,Wunderground v.1.15,2013-04-30 11:53:00,
2013-04-30 05:58:00,47.9,24.1,29.62,NNE,26,1.0,3.0,39,0.00,,,0.00,Wunderground v.1.15,2013-04-30 11:58:00,
2013-04-30 06:03:00,47.7,24.5,29.62,NNE,26,1.0,3.0,40,0.00,,,0.00,Wunderground v.1.15,2013-04-30 12:03:00,
2013-04-30 06:08:00,47.4,24.3,29.62,NNE,26,0.0,3.0,40,0.00,,,0.00,Wunderground v.1.15,2013-04-30 12:08:00,
2013-04-30 06:13:00,47.1,24.6,29.63,NNE,26,0.0,3.0,41,0.00,,,0.00,Wunderground v.1.15,2013-04-30 12:13:00,
2013-04-30 06:18:00,46.8,23.7,29.63,NNE,27,2.0,4.0,40,0.00,,,0.00,Wunderground v.1.15,2013-04-30 12:18:00,
2013-04-30 06:23:00,46.6,24.1,29.63,NNE,27,0.0,3.0,41,0.00,,,0.00,Wunderground v.1.15,2013-04-30 12:23:00,
2013-04-30 06:28:00,46.5,24.0,29.64,NNE,26,0.0,4.0,41,0.00,,,0.00,Wunderground v.1.15,2013-04-30 12:28:00,
2013-04-30 06:33:00,46.6,24.1,29.64,NNE,26,1.0,3.0,41,0.00,,,0.00,Wunderground v.1.15,2013-04-30 12:33:00,
2013-04-30 06:38:00,46.7,24.8,29.64,NNE,27,0.0,4.0,42,0.00,,,0.00,Wunderground v.1.15,2013-04-30 12:38:00,
2013-04-30 06:43:00,46.7,24.2,29.64,NNE,26,3.0,4.0,41,0.00,,,0.00,Wunderground v.1.15,2013-04-30 12:43:00,
2013-04-30 06:48:00,46.9,23.2,29.65,NNE,27,1.0,4.0,39,0.00,,,0.00,Wunderground v.1.15,2013-04-30 12:48:00,
2013-04-30 06:53:00,46.9,23.2,29.65,NNE,27,2.0,4.0,39,0.00,,,0.00,Wunderground v.1.15,2013-04-30 12:53:00,
2013-04-30 06:58:00,47.1,23.4,29.65,NNE,27,0.0,4.0,39,0.00,,,0.00,Wunderground v.1.15,2013-04-30 12:58:00,
2013-04-30 07:04:00,47.4,23.7,29.65,NNE,27,0.0,2.0,39,0.00,,,0.00,Wunderground v.1.15,2013-04-30 13:04:00,
2013-04-30 07:09:00,47.6,23.8,29.65,NNE,27,0.0,2.0,39,0.00,,,0.00,Wunderground v.1.15,2013-04-30 13:09:00,
2013-04-30 07:14:00,48.0,23.6,29.65,NNE,27,0.0,0.0,38,0.00,,,0.00,Wunderground v.1.15,2013-04-30 13:14:00,
2013-04-30 07:19:00,48.4,23.3,29.65,NNE,27,0.0,0.0,37,0.00,,,0.00,Wunderground v.1.15,2013-04-30 13:19:00,
2013-04-30 07:24:00,49.3,26.0,29.65,NNE,26,0.0,0.0,40,0.00,,,0.00,Wunderground v.1.15,2013-04-30 13:24:00,
2013-04-30 07:29:00,50.3,27.5,29.65,NNE,27,0.0,0.0,41,0.00,,,0.00,Wunderground v.1.15,2013-04-30 13:29:00,
2013-04-30 07:34:00,51.1,28.2,29.65,NNE,27,0.0,0.0,41,0.00,,,0.00,Wunderground v.1.15,2013-04-30 13:34:00,
2013-04-30 07:39:00,52.1,27.2,29.65,NNE,27,0.0,0.0,38,0.00,,,0.00,Wunderground v.1.15,2013-04-30 13:39:00,
2013-04-30 07:44:00,53.1,26.1,29.66,NNE,26,0.0,0.0,35,0.00,,,0.00,Wunderground v.1.15,2013-04-30 13:44:00,
2013-04-30 07:49:00,54.2,24.2,29.66,NNE,28,1.0,3.0,31,0.00,,,0.00,Wunderground v.1.15,2013-04-30 13:49:00,
2013-04-30 07:54:00,55.1,25.0,29.66,NNE,27,3.0,4.0,31,0.00,,,0.00,Wunderground v.1.15,2013-04-30 13:54:00,
2013-04-30 07:59:00,55.7,26.3,29.66,NNE,28,2.0,4.0,32,0.00,,,0.00,Wunderground v.1.15,2013-04-30 13:59:00,
2013-04-30 08:04:00,56.3,27.5,29.66,WNW,298,1.0,4.0,33,0.00,,,0.00,Wunderground v.1.15,2013-04-30 14:04:00,
2013-04-30 08:09:00,57.0,26.6,29.66,WNW,297,3.0,4.0,31,0.00,,,0.00,Wunderground v.1.15,2013-04-30 14:09:00,
2013-04-30 08:14:00,58.0,25.9,29.66,WNW,298,0.0,3.0,29,0.00,,,0.00,Wunderground v.1.15,2013-04-30 14:14:00,
2013-04-30 08:19:00,59.0,25.9,29.66,WNW,298,0.0,3.0,28,0.00,,,0.00,Wunderground v.1.15,2013-04-30 14:19:00,
2013-04-30 08:25:00,62.8,27.4,29.66,WNW,298,4.0,4.0,26,0.00,,,0.00,Wunderground v.1.15,2013-04-30 14:25:00,
2013-04-30 08:31:00,63.8,26.3,29.66,WNW,298,2.0,2.0,24,0.00,,,0.00,Wunderground v.1.15,2013-04-30 14:31:00,
2013-04-30 08:36:00,66.0,28.1,29.66,WNW,298,2.0,2.0,24,0.00,,,0.00,Wunderground v.1.15,2013-04-30 14:36:00,
2013-04-30 08:41:00,67.1,28.0,29.66,WNW,297,0.0,1.0,23,0.00,,,0.00,Wunderground v.1.15,2013-04-30 14:41:00,
2013-04-30 08:46:00,67.9,27.6,29.66,WNW,298,3.0,3.0,22,0.00,,,0.00,Wunderground v.1.15,2013-04-30 14:46:00,
2013-04-30 08:52:00,68.8,27.2,29.66,WNW,298,0.0,2.0,21,0.00,,,0.00,Wunderground v.1.15,2013-04-30 14:52:00,
2013-04-30 08:57:00,69.8,25.6,29.66,WNW,296,0.0,3.0,19,0.00,,,0.00,Wunderground v.1.15,2013-04-30 14:57:00,
2013-04-30 09:02:00,69.9,23.1,29.66,SSW,195,2.0,7.0,17,0.00,,,0.00,Wunderground v.1.15,2013-04-30 15:02:00,
2013-04-30 09:07:00,71.2,22.7,29.66,South,187,4.0,7.0,16,0.00,,,0.00,Wunderground v.1.15,2013-04-30 15:07:00,
2013-04-30 09:12:00,71.9,21.7,29.66,SSE,153,2.0,6.0,15,0.00,,,0.00,Wunderground v.1.15,2013-04-30 15:12:00,
2013-04-30 09:17:00,72.5,22.2,29.66,SW,218,3.0,7.0,15,0.00,,,0.00,Wunderground v.1.15,2013-04-30 15:17:00,
2013-04-30 09:22:00,73.4,21.3,29.66,SSW,198,4.0,6.0,14,0.00,,,0.00,Wunderground v.1.15,2013-04-30 15:22:00,
2013-04-30 09:27:00,73.9,19.9,29.66,SSE,165,0.0,6.0,13,0.00,,,0.00,Wunderground v.1.15,2013-04-30 15:27:00,
2013-04-30 09:32:00,74.3,22.0,29.66,South,184,2.0,4.0,14,0.00,,,0.00,Wunderground v.1.15,2013-04-30 15:32:00,
2013-04-30 09:37:00,74.7,20.5,29.66,SSW,192,4.0,5.0,13,0.00,,,0.00,Wunderground v.1.15,2013-04-30 15:37:00,
2013-04-30 09:56:00,75.7,20.0,29.66,ESE,121,5.0,7.0,12,0.00,,,0.00,weatherlink.com 1.10,2013-04-30 15:56:00,
2013-04-30 10:11:00,75.5,19.0,29.65,SSE,159,4.0,6.0,12,0.00,,,0.00,weatherlink.com 1.10,2013-04-30 16:11:00,
2013-04-30 10:26:00,76.8,18.0,29.65,SE,146,0.0,6.0,11,0.00,,,0.00,weatherlink.com 1.10,2013-04-30 16:26:00,
2013-04-30 10:41:00,77.4,17.0,29.65,SE,140,0.0,6.0,10,0.00,,,0.00,weatherlink.com 1.10,2013-04-30 16:41:00,
2013-04-30 10:57:00,79.0,20.0,29.64,SSE,163,0.0,6.0,11,0.00,,,0.00,weatherlink.com 1.10,2013-04-30 16:57:00,
2013-04-30 11:18:00,80.1,16.0,29.64,South,180,1.0,8.0,9,0.00,,,0.00,weatherlink.com 1.10,2013-04-30 17:18:00,
2013-04-30 11:35:00,81.2,17.0,29.63,South,181,5.0,6.0,9,0.00,,,0.00,weatherlink.com 1.10,2013-04-30 17:35:00,
2013-04-30 11:55:00,82.2,15.0,29.62,WNW,299,1.0,5.0,8,0.00,,,0.00,weatherlink.com 1.10,2013-04-30 17:55:00,
2013-04-30 13:05:00,87.9,12.6,29.57,West,278,3.0,10.0,6,0.00,,,0.00,Wunderground v.1.15,2013-04-30 19:05:00,
2013-04-30 13:10:00,88.1,12.7,29.56,SSW,198,5.0,5.0,6,0.00,,,0.00,Wunderground v.1.15,2013-04-30 19:10:00,
2013-04-30 13:15:00,89.1,13.5,29.56,SW,233,11.0,14.0,6,0.00,,,0.00,Wunderground v.1.15,2013-04-30 19:15:00,
2013-04-30 13:20:00,88.6,13.1,29.55,South,182,12.0,12.0,6,0.00,,,0.00,Wunderground v.1.15,2013-04-30 19:20:00,
2013-04-30 13:25:00,88.4,13.0,29.55,WNW,299,7.0,21.0,6,0.00,,,0.00,Wunderground v.1.15,2013-04-30 19:25:00,
2013-04-30 13:30:00,88.3,12.9,29.55,WSW,244,10.0,12.0,6,0.00,,,0.00,Wunderground v.1.15,2013-04-30 19:30:00,
2013-04-30 13:36:00,88.3,12.9,29.55,WSW,241,10.0,19.0,6,0.00,,,0.00,Wunderground v.1.15,2013-04-30 19:36:00,
2013-04-30 13:41:00,87.9,12.6,29.54,NW,304,13.0,13.0,6,0.00,,,0.00,Wunderground v.1.15,2013-04-30 19:41:00,
2013-04-30 13:46:00,88.2,12.8,29.55,West,274,7.0,21.0,6,0.00,,,0.00,Wunderground v.1.15,2013-04-30 19:46:00,
2013-04-30 13:51:00,87.6,12.4,29.55,NW,308,9.0,15.0,6,0.00,,,0.00,Wunderground v.1.15,2013-04-30 19:51:00,
2013-04-30 13:56:00,86.9,11.9,29.54,NNW,340,6.0,15.0,6,0.00,,,0.00,Wunderground v.1.15,2013-04-30 19:56:00,
2013-04-30 14:01:00,87.1,15.5,29.54,West,275,9.0,9.0,7,0.00,,,0.00,Wunderground v.1.15,2013-04-30 20:01:00,
2013-04-30 14:06:00,88.3,12.9,29.54,WSW,242,7.0,19.0,6,0.00,,,0.00,Wunderground v.1.15,2013-04-30 20:06:00,
2013-04-30 14:11:00,89.1,13.5,29.54,WSW,252,8.0,13.0,6,0.00,,,0.00,Wunderground v.1.15,2013-04-30 20:11:00,
2013-04-30 14:16:00,89.3,13.6,29.54,West,261,16.0,20.0,6,0.00,,,0.00,Wunderground v.1.15,2013-04-30 20:16:00,
2013-04-30 14:21:00,89.3,13.6,29.54,WSW,238,19.0,19.0,6,0.00,,,0.00,Wunderground v.1.15,2013-04-30 20:21:00,
2013-04-30 14:26:00,89.5,13.7,29.54,SW,231,18.0,20.0,6,0.00,,,0.00,Wunderground v.1.15,2013-04-30 20:26:00,
2013-04-30 14:31:00,89.5,9.6,29.53,SW,234,6.0,18.0,5,0.00,,,0.00,Wunderground v.1.15,2013-04-30 20:31:00,
2013-04-30 14:36:00,89.8,9.8,29.54,West,266,14.0,22.0,5,0.00,,,0.00,Wunderground v.1.15,2013-04-30 20:36:00,
2013-04-30 14:41:00,89.3,9.5,29.54,SW,234,14.0,21.0,5,0.00,,,0.00,Wunderground v.1.15,2013-04-30 20:41:00,
2013-04-30 14:46:00,88.4,8.9,29.54,West,268,9.0,22.0,5,0.00,,,0.00,Wunderground v.1.15,2013-04-30 20:46:00,
2013-04-30 14:51:00,88.4,8.9,29.54,WNW,283,8.0,14.0,5,0.00,,,0.00,Wunderground v.1.15,2013-04-30 20:51:00,
2013-04-30 14:56:00,88.9,9.2,29.54,SW,226,4.0,16.0,5,0.00,,,0.00,Wunderground v.1.15,2013-04-30 20:56:00,
2013-04-30 15:01:00,89.4,9.6,29.54,WSW,257,10.0,17.0,5,0.00,,,0.00,Wunderground v.1.15,2013-04-30 21:01:00,
2013-04-30 15:07:00,89.4,9.6,29.53,WSW,246,15.0,17.0,5,0.00,,,0.00,Wunderground v.1.15,2013-04-30 21:07:00,
2013-04-30 15:12:00,89.5,9.6,29.53,WSW,257,6.0,16.0,5,0.00,,,0.00,Wunderground v.1.15,2013-04-30 21:12:00,
2013-04-30 15:17:00,89.9,9.9,29.53,SW,218,9.0,17.0,5,0.00,,,0.00,Wunderground v.1.15,2013-04-30 21:17:00,
2013-04-30 15:22:00,90.2,10.1,29.53,South,188,13.0,18.0,5,0.00,,,0.00,Wunderground v.1.15,2013-04-30 21:22:00,
2013-04-30 15:27:00,90.4,10.3,29.52,WSW,240,10.0,18.0,5,0.00,,,0.00,Wunderground v.1.15,2013-04-30 21:27:00,
2013-04-30 15:33:00,90.6,10.4,29.52,South,191,11.0,11.0,5,0.00,,,0.00,Wunderground v.1.15,2013-04-30 21:33:00,
2013-04-30 15:38:00,90.4,10.3,29.51,SW,233,9.0,16.0,5,0.00,,,0.00,Wunderground v.1.15,2013-04-30 21:38:00,
2013-04-30 15:43:00,90.4,10.3,29.51,West,274,8.0,20.0,5,0.00,,,0.00,Wunderground v.1.15,2013-04-30 21:43:00,
2013-04-30 15:48:00,90.8,10.5,29.51,WSW,252,12.0,20.0,5,0.00,,,0.00,Wunderground v.1.15,2013-04-30 21:48:00,
2013-04-30 15:53:00,90.8,10.5,29.51,West,267,13.0,17.0,5,0.00,,,0.00,Wunderground v.1.15,2013-04-30 21:53:00,
2013-04-30 15:58:00,90.5,10.3,29.51,WSW,256,17.0,20.0,5,0.00,,,0.00,Wunderground v.1.15,2013-04-30 21:58:00,
2013-04-30 16:03:00,89.9,9.9,29.50,SW,232,11.0,18.0,5,0.00,,,0.00,Wunderground v.1.15,2013-04-30 22:03:00,
2013-04-30 16:08:00,89.9,5.0,29.50,WSW,244,12.0,18.0,4,0.00,,,0.00,Wunderground v.1.15,2013-04-30 22:08:00,
2013-04-30 16:13:00,90.2,5.2,29.50,West,280,15.0,22.0,4,0.00,,,0.00,Wunderground v.1.15,2013-04-30 22:13:00,
2013-04-30 16:18:00,90.2,5.2,29.50,WSW,250,7.0,22.0,4,0.00,,,0.00,Wunderground v.1.15,2013-04-30 22:18:00,
2013-04-30 16:23:00,90.0,5.0,29.50,WNW,290,10.0,16.0,4,0.00,,,0.00,Wunderground v.1.15,2013-04-30 22:23:00,
2013-04-30 16:28:00,90.1,5.1,29.50,WNW,294,9.0,16.0,4,0.00,,,0.00,Wunderground v.1.15,2013-04-30 22:28:00,
2013-04-30 16:33:00,90.3,5.2,29.50,WSW,239,5.0,14.0,4,0.00,,,0.00,Wunderground v.1.15,2013-04-30 22:33:00,
2013-04-30 16:38:00,90.6,5.5,29.49,SSW,205,13.0,22.0,4,0.00,,,0.00,Wunderground v.1.15,2013-04-30 22:38:00,
2013-04-30 16:43:00,90.2,5.2,29.49,WSW,244,7.0,17.0,4,0.00,,,0.00,Wunderground v.1.15,2013-04-30 22:43:00,
2013-04-30 16:48:00,90.3,5.2,29.49,West,265,9.0,17.0,4,0.00,,,0.00,Wunderground v.1.15,2013-04-30 22:48:00,
2013-04-30 16:53:00,90.8,5.6,29.49,West,259,12.0,17.0,4,0.00,,,0.00,Wunderground v.1.15,2013-04-30 22:53:00,
2013-04-30 16:58:00,90.8,5.6,29.48,West,259,12.0,20.0,4,0.00,,,0.00,Wunderground v.1.15,2013-04-30 22:58:00,
2013-04-30 17:03:00,90.7,5.5,29.49,WSW,250,18.0,18.0,4,0.00,,,0.00,Wunderground v.1.15,2013-04-30 23:03:00,
2013-04-30 17:08:00,90.5,5.4,29.49,WSW,242,16.0,18.0,4,0.00,,,0.00,Wunderground v.1.15,2013-04-30 23:08:00,
2013-04-30 17:13:00,90.4,5.3,29.49,West,269,6.0,15.0,4,0.00,,,0.00,Wunderground v.1.15,2013-04-30 23:13:00,
2013-04-30 17:18:00,90.5,-0.8,29.49,West,273,7.0,20.0,3,0.00,,,0.00,Wunderground v.1.15,2013-04-30 23:18:00,
2013-04-30 17:24:00,87.8,-2.6,29.49,WNW,284,10.0,14.0,3,0.00,,,0.00,Wunderground v.1.15,2013-04-30 23:24:00,
2013-04-30 17:30:00,87.5,3.3,29.49,WNW,285,24.0,24.0,4,0.00,,,0.00,Wunderground v.1.15,2013-04-30 23:30:00,
2013-04-30 17:35:00,86.5,2.6,29.49,WNW,290,15.0,24.0,4,0.00,,,0.00,Wunderground v.1.15,2013-04-30 23:35:00,
2013-04-30 17:41:00,86.0,2.3,29.49,West,265,10.0,14.0,4,0.00,,,0.00,Wunderground v.1.15,2013-04-30 23:41:00,
2013-04-30 17:47:00,86.1,2.4,29.49,WSW,239,11.0,17.0,4,0.00,,,0.00,Wunderground v.1.15,2013-04-30 23:47:00,
2013-04-30 17:52:00,86.3,2.5,29.49,SW,223,11.0,17.0,4,0.00,,,0.00,Wunderground v.1.15,2013-04-30 23:52:00,
2013-04-30 17:57:00,86.4,2.6,29.48,WNW,302,7.0,21.0,4,0.00,,,0.00,Wunderground v.1.15,2013-04-30 23:57:00,
2013-04-30 18:02:00,86.7,2.8,29.48,WSW,242,13.0,14.0,4,0.00,,,0.00,Wunderground v.1.15,2013-05-01 00:02:00,
2013-04-30 18:07:00,86.8,2.8,29.49,WSW,256,18.0,24.0,4,0.00,,,0.00,Wunderground v.1.15,2013-05-01 00:07:00,
2013-04-30 18:12:00,86.3,2.5,29.49,SW,227,10.0,16.0,4,0.00,,,0.00,Wunderground v.1.15,2013-05-01 00:12:00,
2013-04-30 18:18:00,86.3,2.5,29.49,West,259,12.0,16.0,4,0.00,,,0.00,Wunderground v.1.15,2013-05-01 00:18:00,
2013-04-30 18:23:00,85.9,2.2,29.49,WNW,288,10.0,13.0,4,0.00,,,0.00,Wunderground v.1.15,2013-05-01 00:23:00,
2013-04-30 18:29:00,85.6,2.0,29.49,WSW,250,9.0,24.0,4,0.00,,,0.00,weatherlink.com 1.10,2013-05-01 00:29:00,
2013-04-30 18:34:00,85.2,1.7,29.50,WSW,255,10.0,17.0,4,0.00,,,0.00,Wunderground v.1.15,2013-05-01 00:34:00,
2013-04-30 18:39:00,85.1,1.7,29.50,SW,220,9.0,17.0,4,0.00,,,0.00,Wunderground v.1.15,2013-05-01 00:39:00,
2013-04-30 18:44:00,85.0,1.6,29.50,WSW,240,11.0,19.0,4,0.00,,,0.00,Wunderground v.1.15,2013-05-01 00:44:00,
2013-04-30 18:49:00,84.7,1.4,29.49,West,274,9.0,20.0,4,0.00,,,0.00,Wunderground v.1.15,2013-05-01 00:49:00,
2013-04-30 18:54:00,84.3,1.1,29.50,West,269,11.0,22.0,4,0.00,,,0.00,Wunderground v.1.15,2013-05-01 00:54:00,
2013-04-30 18:59:00,83.8,0.8,29.50,WSW,258,13.0,22.0,4,0.00,,,0.00,Wunderground v.1.15,2013-05-01 00:59:00,
2013-04-30 19:04:00,83.0,0.2,29.50,WSW,252,10.0,19.0,4,0.00,,,0.00,Wunderground v.1.15,2013-05-01 01:04:00,
2013-04-30 19:09:00,82.3,4.5,29.50,WSW,256,16.0,19.0,5,0.00,,,0.00,Wunderground v.1.15,2013-05-01 01:09:00,
2013-04-30 19:14:00,81.8,4.2,29.50,WSW,249,17.0,17.0,5,0.00,,,0.00,Wunderground v.1.15,2013-05-01 01:14:00,
2013-04-30 19:19:00,81.5,4.0,29.50,West,274,9.0,20.0,5,0.00,,,0.00,Wunderground v.1.15,2013-05-01 01:19:00,
2013-04-30 19:24:00,81.2,3.8,29.50,West,259,14.0,18.0,5,0.00,,,0.00,Wunderground v.1.15,2013-05-01 01:24:00,
2013-04-30 19:29:00,80.9,3.6,29.50,West,259,9.0,18.0,5,0.00,,,0.00,Wunderground v.1.15,2013-05-01 01:29:00,
2013-04-30 19:34:00,80.6,3.3,29.50,West,273,11.0,21.0,5,0.00,,,0.00,Wunderground v.1.15,2013-05-01 01:34:00,
2013-04-30 19:39:00,80.3,7.1,29.50,West,273,13.0,21.0,6,0.00,,,0.00,Wunderground v.1.15,2013-05-01 01:39:00,
2013-04-30 19:44:00,79.9,6.8,29.50,WSW,252,8.0,16.0,6,0.00,,,0.00,Wunderground v.1.15,2013-05-01 01:44:00,
2013-04-30 19:49:00,79.6,6.6,29.50,West,276,6.0,16.0,6,0.00,,,0.00,Wunderground v.1.15,2013-05-01 01:49:00,
2013-04-30 19:54:00,79.4,6.5,29.51,West,267,15.0,16.0,6,0.00,,,0.00,Wunderground v.1.15,2013-05-01 01:54:00,
2013-04-30 19:59:00,79.1,6.3,29.51,West,280,8.0,16.0,6,0.00,,,0.00,Wunderground v.1.15,2013-05-01 01:59:00,
2013-04-30 20:04:00,78.7,6.0,29.51,West,279,5.0,14.0,6,0.00,,,0.00,Wunderground v.1.15,2013-05-01 02:04:00,
2013-04-30 20:09:00,78.5,5.8,29.51,West,268,7.0,14.0,6,0.00,,,0.00,Wunderground v.1.15,2013-05-01 02:09:00,
2013-04-30 20:14:00,78.2,5.6,29.51,West,269,9.0,14.0,6,0.00,,,0.00,Wunderground v.1.15,2013-05-01 02:14:00,
2013-04-30 20:19:00,78.0,5.5,29.51,West,273,9.0,14.0,6,0.00,,,0.00,Wunderground v.1.15,2013-05-01 02:19:00,
2013-04-30 20:24:00,77.7,5.2,29.51,WNW,286,9.0,14.0,6,0.00,,,0.00,Wunderground v.1.15,2013-05-01 02:24:00,
2013-04-30 20:29:00,77.5,5.1,29.52,WNW,300,5.0,14.0,6,0.00,,,0.00,Wunderground v.1.15,2013-05-01 02:29:00,
2013-04-30 20:34:00,77.3,5.0,29.52,West,263,8.0,18.0,6,0.00,,,0.00,Wunderground v.1.15,2013-05-01 02:34:00,
2013-04-30 20:39:00,77.2,8.3,29.52,West,259,13.0,18.0,7,0.00,,,0.00,Wunderground v.1.15,2013-05-01 02:39:00,
2013-04-30 20:45:00,76.9,8.1,29.53,West,272,8.0,10.0,7,0.00,,,0.00,Wunderground v.1.15,2013-05-01 02:45:00,
2013-04-30 20:51:00,76.5,7.8,29.53,West,277,6.0,10.0,7,0.00,,,0.00,Wunderground v.1.15,2013-05-01 02:51:00,
2013-04-30 20:56:00,76.1,10.4,29.53,West,277,6.0,10.0,8,0.00,,,0.00,Wunderground v.1.15,2013-05-01 02:56:00,
2013-04-30 21:01:00,75.7,10.2,29.53,West,278,5.0,8.0,8,0.00,,,0.00,Wunderground v.1.15,2013-05-01 03:01:00,
2013-04-30 21:06:00,75.3,9.9,29.53,West,273,4.0,8.0,8,0.00,,,0.00,Wunderground v.1.15,2013-05-01 03:06:00,
2013-04-30 21:11:00,74.9,9.6,29.54,West,278,4.0,5.0,8,0.00,,,0.00,Wunderground v.1.15,2013-05-01 03:11:00,
2013-04-30 21:16:00,74.5,9.3,29.54,West,271,5.0,8.0,8,0.00,,,0.00,Wunderground v.1.15,2013-05-01 03:16:00,
2013-04-30 21:22:00,74.1,9.0,29.54,West,277,4.0,7.0,8,0.00,,,0.00,Wunderground v.1.15,2013-05-01 03:22:00,
2013-04-30 21:26:00,73.7,8.7,29.55,WSW,244,2.0,8.0,8,0.00,,,0.00,Wunderground v.1.15,2013-05-01 03:26:00,
2013-04-30 21:32:00,73.3,8.4,29.55,West,267,4.0,6.0,8,0.00,,,0.00,Wunderground v.1.15,2013-05-01 03:32:00,
2013-04-30 21:37:00,73.0,10.8,29.55,WNW,292,4.0,6.0,9,0.00,,,0.00,Wunderground v.1.15,2013-05-01 03:37:00,
2013-04-30 21:42:00,72.7,12.9,29.55,WNW,292,0.0,3.0,10,0.00,,,0.00,Wunderground v.1.15,2013-05-01 03:42:00,
2013-04-30 21:47:00,71.9,12.3,29.56,WNW,292,0.0,3.0,10,0.00,,,0.00,Wunderground v.1.15,2013-05-01 03:47:00,
2013-04-30 21:52:00,71.1,11.7,29.56,NNW,342,1.0,1.0,10,0.00,,,0.00,Wunderground v.1.15,2013-05-01 03:52:00,
2013-04-30 21:57:00,70.4,11.2,29.56,WNW,302,5.0,6.0,10,0.00,,,0.00,Wunderground v.1.15,2013-05-01 03:57:00,
2013-04-30 22:01:00,69.8,12.9,29.56,WNW,301,0.0,2.0,11,0.00,,,0.00,Wunderground v.1.15,2013-05-01 04:01:00,
2013-04-30 22:03:00,69.5,12.6,29.56,WNW,302,0.0,2.0,11,0.00,,,0.00,Wunderground v.1.15,2013-05-01 04:03:00,
2013-04-30 22:08:00,68.9,12.2,29.57,WNW,302,0.0,2.0,11,0.00,,,0.00,Wunderground v.1.15,2013-05-01 04:08:00,
2013-04-30 22:13:00,69.2,12.4,29.57,NW,326,1.0,4.0,11,0.00,,,0.00,Wunderground v.1.15,2013-05-01 04:13:00,
2013-04-30 22:18:00,69.1,10.2,29.57,NNE,15,3.0,4.0,10,0.00,,,0.00,Wunderground v.1.15,2013-05-01 04:18:00,
2013-04-30 22:23:00,68.7,12.0,29.57,NE,38,3.0,4.0,11,0.00,,,0.00,Wunderground v.1.15,2013-05-01 04:23:00,
2013-04-30 22:28:00,68.1,11.5,29.57,NE,39,3.0,4.0,11,0.00,,,0.00,Wunderground v.1.15,2013-05-01 04:28:00,
2013-04-30 22:33:00,67.7,11.2,29.57,NE,40,1.0,4.0,11,0.00,,,0.00,Wunderground v.1.15,2013-05-01 04:33:00,
2013-04-30 22:38:00,67.4,11.0,29.57,NE,41,2.0,4.0,11,0.00,,,0.00,Wunderground v.1.15,2013-05-01 04:38:00,
2013-04-30 22:43:00,67.4,13.0,29.58,NNE,27,4.0,6.0,12,0.00,,,0.00,Wunderground v.1.15,2013-05-01 04:43:00,
2013-04-30 22:48:00,67.5,11.1,29.57,SE,134,3.0,6.0,11,0.00,,,0.00,Wunderground v.1.15,2013-05-01 04:48:00,
2013-04-30 22:53:00,68.2,13.6,29.58,SSW,213,3.0,9.0,12,0.00,,,0.00,Wunderground v.1.15,2013-05-01 04:53:00,
2013-04-30 22:58:00,69.4,10.4,29.57,SE,132,3.0,9.0,10,0.00,,,0.00,Wunderground v.1.15,2013-05-01 04:58:00,
2013-04-30 23:03:00,70.3,8.7,29.57,SE,134,4.0,8.0,9,0.00,,,0.00,Wunderground v.1.15,2013-05-01 05:03:00,
2013-04-30 23:09:00,71.0,9.3,29.57,South,182,4.0,9.0,9,0.00,,,0.00,Wunderground v.1.15,2013-05-01 05:09:00,
2013-04-30 23:14:00,71.6,9.7,29.58,South,182,7.0,7.0,9,0.00,,,0.00,Wunderground v.1.15,2013-05-01 05:14:00,
2013-04-30 23:19:00,72.0,10.0,29.58,North,9,1.0,8.0,9,0.00,,,0.00,Wunderground v.1.15,2013-05-01 05:19:00,
2013-04-30 23:24:00,71.9,9.9,29.58,SE,143,2.0,12.0,9,0.00,,,0.00,Wunderground v.1.15,2013-05-01 05:24:00,
2013-04-30 23:29:00,72.0,10.0,29.58,SSW,208,4.0,12.0,9,0.00,,,0.00,Wunderground v.1.15,2013-05-01 05:29:00,
2013-04-30 23:34:00,72.1,7.5,29.58,South,185,6.0,13.0,8,0.00,,,0.00,Wunderground v.1.15,2013-05-01 05:34:00,
2013-04-30 23:39:00,72.3,7.6,29.58,West,272,1.0,13.0,8,0.00,,,0.00,Wunderground v.1.15,2013-05-01 05:39:00,
2013-04-30 23:44:00,72.1,10.1,29.58,South,180,5.0,5.0,9,0.00,,,0.00,Wunderground v.1.15,2013-05-01 05:44:00,
2013-04-30 23:49:00,71.7,9.8,29.58,SSE,154,0.0,5.0,9,0.00,,,0.00,Wunderground v.1.15,2013-05-01 05:49:00,
2013-04-30 23:54:00,71.3,9.5,29.59,WNW,284,1.0,5.0,9,0.00,,,0.00,Wunderground v.1.15,2013-05-01 05:54:00,
2013-04-30 23:59:00,71.4,9.6,29.59,ESE,121,2.0,8.0,9,0.00,,,0.00,Wunderground v.1.15,2013-05-01 05:59:00,